Regional Weather Roundup
Issued by NWS Binghamton, NY

Home | Current Version | Previous Version | Text Only | Print | Product List | Glossary On
Versions: 1 2 3 4 5 6 7 8 9 10 11 12 13 14 15 16 17 18 19 20 21 22 23 24 25 26 27
000
ASUS41 KBGM 211210
RWRBGM
RWRBGM
BINGHAMTON REGIONAL WEATHER ROUNDUP
NATIONAL WEATHER SERVICE BINGHAMTON NY
800 AM EDT MON APR 21 2014

Note: "fair" indicates few or no clouds below 12,000 feet with no
significant weather and/or obstructions to visibility.

* = Station(s) that does not report precipitation, such as rain,
snow, etc, also no thunder or fog.

!NYZ009-015>018-022>025-036-037-044>046-055>057-062-211300
...CENTRAL NEW YORK...

CITY           SKY/WX    TMP DP  RH WIND       PRES   REMARKS
BINGHAMTON     SUNNY     43  28  55 S5        30.15S
CORTLAND       FAIR      45  32  61 CALM      30.14F
DANSVILLE      PTSUNNY   54  34  46 SE8       30.11S
ELMIRA         MOSUNNY   41  34  76 CALM      30.14F
ITHACA         MOSUNNY   49  32  52 S8        30.13F
HAMILTON       SUNNY     46  30  53 S10       30.14
MONTICELLO     SUNNY     36  30  80 CALM      30.21S
NORWICH        SUNNY     45  28  53 S6        30.17S
ONEONTA        SUNNY     45  21  39 SW5       30.15F
PENN YAN       CLOUDY    50  33  52 SW18G24   30.09F
ROME           PTSUNNY   48  31  51 SE8       30.14F
SIDNEY         SUNNY     41  32  70 CALM      30.18S
SYRACUSE       PTSUNNY   52  35  52 E6        30.10F
$$

!PAZ038>040-043-044-047-048-072-211300
...NORTHEAST PENNSYLVANIA...

CITY           SKY/WX    TMP DP  RH WIND       PRES   REMARKS
SCRANTON       SUNNY     43  25  49 VRB5      30.18F
TOWANDA*       SUNNY     43  34  70 CALM      30.18F
$$
&&
KEY
WCI = WIND CHILL INDEX
VSB = VISIBILITY
HX  = HEAT INDEX
$$



USA.gov is the U.S. government's official web portal to all federal, state and local government web resources and services.